| time (UTC) | temp C | wind direction | speed KPH | gust KPH | rain 1hr cm | rain 24hr cm | rain mn cm | humidity % | barometer mb |
| 20260505195804 | 22 | 195 | 6.4 | 24.1 | 0.00 | 0.00 | 0.00 | 53 | 1003.4 |
| 20260505195305 | 23 | 194 | 3.2 | 24.1 | 0.00 | 0.00 | 0.00 | 52 | 1003.4 |
| 20260505194759 | 23 | 199 | 17.7 | 30.6 | 0.00 | 0.00 | 0.00 | 51 | 1003.6 |
| 20260505194256 | 23 | 144 | 9.7 | 29.0 | 0.00 | 0.00 | 0.00 | 51 | 1003.6 |
| 20260505193756 | 23 | 201 | 3.2 | 29.0 | 0.00 | 0.00 | 0.00 | 51 | 1003.7 |
| 20260505193254 | 23 | 53 | 1.6 | 14.5 | 0.00 | 0.00 | 0.00 | 52 | 1003.6 |
| 20260505192752 | 23 | 203 | 8.0 | 25.7 | 0.00 | 0.00 | 0.00 | 51 | 1003.7 |
| 20260505192250 | 24 | 212 | 3.2 | 9.7 | 0.00 | 0.00 | 0.00 | 51 | 1003.8 |
| 20260505191748 | 23 | 210 | 22.5 | 25.7 | 0.00 | 0.00 | 0.00 | 50 | 1003.9 |
| 20260505191246 | 24 | 97 | 3.2 | 29.0 | 0.00 | 0.00 | 0.00 | 52 | 1004.1 |
| 20260505190742 | 24 | 152 | 6.4 | 12.9 | 0.00 | 0.00 | 0.00 | 50 | 1003.9 |
| 20260505190243 | 24 | 53 | 4.8 | 16.1 | 0.00 | 0.00 | 0.00 | 52 | 1004.1 |
| 20260505185740 | 24 | 202 | 14.5 | 33.8 | 0.00 | 0.00 | 0.00 | 50 | 1003.8 |
| 20260505185236 | 24 | 178 | 11.3 | 19.3 | 0.00 | 0.00 | 0.00 | 51 | 1003.9 |
| 20260505184732 | 24 | 106 | 4.8 | 9.7 | 0.00 | 0.00 | 0.00 | 50 | 1004.0 |
| 20260505184230 | 23 | 201 | 12.9 | 29.0 | 0.00 | 0.00 | 0.00 | 50 | 1004.2 |
| 20260505183726 | 23 | 297 | 6.4 | 16.1 | 0.00 | 0.00 | 0.00 | 51 | 1004.0 |
| 20260505183224 | 23 | 130 | 8.0 | 19.3 | 0.00 | 0.00 | 0.00 | 50 | 1004.0 |
| 20260505182720 | 24 | 146 | 9.7 | 12.9 | 0.00 | 0.00 | 0.00 | 50 | 1004.3 |
| 20260505182217 | 24 | 191 | 6.4 | 14.5 | 0.00 | 0.00 | 0.00 | 50 | 1004.2 |
| 20260505181713 | 23 | 174 | 8.0 | 16.1 | 0.00 | 0.00 | 0.00 | 50 | 1004.3 |
| 20260505181211 | 24 | 129 | 3.2 | 9.7 | 0.00 | 0.00 | 0.00 | 51 | 1004.5 |
| 20260505180707 | 23 | 135 | 8.0 | 14.5 | 0.00 | 0.00 | 0.00 | 51 | 1004.6 |
| 20260505180204 | 23 | 204 | 3.2 | 17.7 | 0.00 | 0.00 | 0.00 | 51 | 1004.5 |
| 20260505175700 | 23 | 101 | 4.8 | 14.5 | 0.00 | 0.00 | 0.00 | 54 | 1004.7 |
| 20260505175157 | 23 | 143 | 4.8 | 9.7 | 0.00 | 0.00 | 0.00 | 52 | 1004.7 |
| 20260505174653 | 23 | 82 | 3.2 | 16.1 | 0.00 | 0.00 | 0.00 | 54 | 1005.0 |
| 20260505174149 | 23 | 170 | 6.4 | 12.9 | 0.00 | 0.00 | 0.00 | 51 | 1005.1 |
| 20260505173646 | 22 | 242 | 14.5 | 14.5 | 0.00 | 0.00 | 0.00 | 53 | 1005.1 |
| 20260505173143 | 21 | 216 | 16.1 | 19.3 | 0.00 | 0.00 | 0.00 | 54 | 1005.3 |
| 20260505172641 | 21 | 217 | 14.5 | 17.7 | 0.00 | 0.00 | 0.00 | 55 | 1005.3 |
| 20260505172138 | 21 | 126 | 4.8 | 11.3 | 0.00 | 0.00 | 0.00 | 55 | 1005.3 |
| 20260505171637 | 22 | 246 | 17.7 | 20.9 | 0.00 | 0.00 | 0.00 | 53 | 1005.5 |
| 20260505171135 | 22 | 174 | 8.0 | 14.5 | 0.00 | 0.00 | 0.00 | 53 | 1005.2 |
| 20260505170632 | 21 | 61 | 3.2 | 14.5 | 0.00 | 0.00 | 0.00 | 56 | 1005.5 |
| 20260505170128 | 21 | 230 | 8.0 | 24.1 | 0.00 | 0.00 | 0.00 | 56 | 1005.6 |
| 20260505165623 | 21 | 148 | 4.8 | 9.7 | 0.00 | 0.00 | 0.00 | 54 | 1005.8 |
| 20260505165120 | 21 | 201 | 11.3 | 20.9 | 0.00 | 0.00 | 0.00 | 55 | 1005.7 |
| 20260505164615 | 21 | 222 | 12.9 | 16.1 | 0.00 | 0.00 | 0.00 | 54 | 1005.9 |
| 20260505164113 | 21 | 222 | 14.5 | 17.7 | 0.00 | 0.00 | 0.00 | 55 | 1005.7 |
| 20260505163611 | 21 | 131 | 6.4 | 19.3 | 0.00 | 0.00 | 0.00 | 54 | 1005.9 |
| 20260505163108 | 21 | 201 | 11.3 | 24.1 | 0.00 | 0.00 | 0.00 | 54 | 1006.0 |
| 20260505162606 | 22 | 93 | 3.2 | 11.3 | 0.00 | 0.00 | 0.00 | 53 | 1006.2 |
| 20260505162103 | 21 | 138 | 11.3 | 14.5 | 0.00 | 0.00 | 0.00 | 56 | 1005.8 |
| 20260505161600 | 22 | 244 | 9.7 | 12.9 | 0.00 | 0.00 | 0.00 | 55 | 1006.1 |
| 20260505161057 | 22 | 164 | 9.7 | 11.3 | 0.00 | 0.00 | 0.00 | 54 | 1006.0 |
| 20260505160555 | 21 | 129 | 4.8 | 14.5 | 0.00 | 0.00 | 0.00 | 54 | 1005.9 |
| 20260505153032 | 20 | 99 | 3.2 | 8.0 | 0.00 | 0.00 | 0.00 | 57 | 1006.9 |
| 20260505152528 | 21 | 138 | 1.6 | 6.4 | 0.00 | 0.00 | 0.00 | 55 | 1007.1 |
| 20260505152024 | 20 | 97 | 1.6 | 11.3 | 0.00 | 0.00 | 0.00 | 56 | 1007.2 |
| 20260505151519 | 20 | 218 | 8.0 | 8.0 | 0.00 | 0.00 | 0.00 | 57 | 1006.9 |
| 20260505151017 | 19 | 201 | 11.3 | 14.5 | 0.00 | 0.00 | 0.00 | 57 | 1007.1 |
| 20260505150513 | 20 | 153 | 6.4 | 14.5 | 0.00 | 0.00 | 0.00 | 58 | 1006.8 |
| 20260505140438 | 18 | 202 | 3.2 | 22.5 | 0.00 | 0.00 | 0.00 | 59 | 1007.3 |
| 20260505124852 | 16 | 211 | 3.2 | 6.4 | 0.00 | 0.00 | 0.00 | 63 | 1007.6 |
| 20260505124349 | 15 | 154 | 3.2 | 19.3 | 0.00 | 0.00 | 0.00 | 64 | 1007.7 |
| 20260505123845 | 15 | 261 | 3.2 | 20.9 | 0.00 | 0.00 | 0.00 | 66 | 1007.6 |
| 20260505123342 | 15 | 185 | 3.2 | 8.0 | 0.00 | 0.00 | 0.00 | 65 | 1007.7 |
| 20260505122837 | 15 | 208 | 4.8 | 17.7 | 0.00 | 0.00 | 0.00 | 67 | 1007.8 |
| 20260505122335 | 15 | 126 | 1.6 | 16.1 | 0.00 | 0.00 | 0.00 | 67 | 1007.8 |
| 20260505121832 | 14 | 200 | 3.2 | 9.7 | 0.00 | 0.00 | 0.00 | 69 | 1007.9 |
| 20260505121329 | 13 | 154 | 0.0 | 12.9 | 0.00 | 0.00 | 0.00 | 70 | 1007.9 |
| 20260505120825 | 13 | 137 | 3.2 | 16.1 | 0.00 | 0.00 | 0.00 | 70 | 1008.0 |
| 20260505120321 | 13 | 203 | 6.4 | 9.7 | 0.00 | 0.00 | 0.00 | 71 | 1007.8 |
| 20260505115819 | 13 | 149 | 3.2 | 14.5 | 0.00 | 0.00 | 0.00 | 71 | 1008.1 |
| 20260505115317 | 13 | 86 | 3.2 | 8.0 | 0.00 | 0.00 | 0.00 | 73 | 1008.0 |
| 20260505114815 | 12 | 180 | 3.2 | 14.5 | 0.00 | 0.00 | 0.00 | 73 | 1008.0 |
| 20260505114311 | 12 | 163 | 6.4 | 8.0 | 0.00 | 0.00 | 0.00 | 73 | 1008.0 |
| 20260505113808 | 12 | 223 | 4.8 | 8.0 | 0.00 | 0.00 | 0.00 | 75 | 1008.0 |
| 20260505113304 | 11 | 250 | 1.6 | 6.4 | 0.00 | 0.00 | 0.00 | 76 | 1008.0 |
| 20260505112800 | 11 | 212 | 8.0 | 9.7 | 0.00 | 0.00 | 0.00 | 77 | 1008.1 |
| 20260505112258 | 11 | 174 | 3.2 | 9.7 | 0.00 | 0.00 | 0.00 | 78 | 1008.1 |
| 20260505111758 | 11 | 180 | 0.0 | 6.4 | 0.00 | 0.00 | 0.00 | 78 | 1008.1 |
| 20260505111254 | 11 | 194 | 6.4 | 6.4 | 0.00 | 0.00 | 0.00 | 78 | 1008.2 |
| 20260505110750 | 11 | 224 | 1.6 | 11.3 | 0.00 | 0.00 | 0.00 | 79 | 1008.0 |
| 20260505110248 | 11 | 231 | 6.4 | 8.0 | 0.00 | 0.00 | 0.00 | 79 | 1008.0 |
| 20260505101722 | 9 | 151 | 3.2 | 3.2 | 0.00 | 0.00 | 0.00 | 84 | 1007.9 |
| 20260505101217 | 8 | 77 | 1.6 | 3.2 | 0.00 | 0.00 | 0.00 | 88 | 1008.0 |
| 20260505100714 | 8 | 80 | 3.2 | 3.2 | 0.00 | 0.00 | 0.00 | 88 | 1007.8 |
| 20260505100211 | 8 | 80 | 3.2 | 3.2 | 0.00 | 0.00 | 0.00 | 88 | 1007.9 |
| 20260505095706 | 8 | 98 | 3.2 | 4.8 | 0.00 | 0.00 | 0.00 | 86 | 1007.8 |
| 20260505095205 | 8 | 221 | 3.2 | 4.8 | 0.00 | 0.00 | 0.00 | 86 | 1008.1 |
| 20260505094700 | 8 | 149 | 0.0 | 4.8 | 0.00 | 0.00 | 0.00 | 86 | 1007.9 |
| 20260505094157 | 8 | 89 | 0.0 | 6.4 | 0.00 | 0.00 | 0.00 | 86 | 1008.0 |
| 20260505093653 | 8 | 121 | 0.0 | 4.8 | 0.00 | 0.00 | 0.00 | 85 | 1007.9 |
| 20260505093151 | 8 | 71 | 3.2 | 4.8 | 0.00 | 0.00 | 0.00 | 86 | 1007.7 |
| 20260505092647 | 8 | 20 | 3.2 | 6.4 | 0.00 | 0.00 | 0.00 | 85 | 1007.8 |
| 20260505092146 | 8 | 139 | 3.2 | 4.8 | 0.00 | 0.00 | 0.00 | 85 | 1007.6 |
| 20260505091643 | 8 | 75 | 0.0 | 3.2 | 0.00 | 0.00 | 0.00 | 85 | 1007.8 |
| 20260505091141 | 8 | 180 | 3.2 | 3.2 | 0.00 | 0.00 | 0.00 | 85 | 1008.0 |
| 20260505090638 | 8 | 179 | 3.2 | 4.8 | 0.00 | 0.00 | 0.00 | 85 | 1007.9 |
| 20260505090136 | 8 | 11 | 0.0 | 1.6 | 0.00 | 0.00 | 0.00 | 85 | 1008.0 |
| 20260505085633 | 8 | 138 | 3.2 | 3.2 | 0.00 | 0.00 | 0.00 | 84 | 1007.9 |
| 20260505085131 | 8 | 134 | 1.6 | 3.2 | 0.00 | 0.00 | 0.00 | 85 | 1007.9 |
| 20260505084629 | 8 | 55 | 0.0 | 3.2 | 0.00 | 0.00 | 0.00 | 85 | 1007.9 |
| 20260505084127 | 8 | 236 | 0.0 | 3.2 | 0.00 | 0.00 | 0.00 | 84 | 1007.9 |
| 20260505083624 | 8 | 114 | 0.0 | 4.8 | 0.00 | 0.00 | 0.00 | 83 | 1008.1 |
| 20260505083121 | 8 | 236 | 0.0 | 3.2 | 0.00 | 0.00 | 0.00 | 84 | 1007.9 |
| 20260505082617 | 8 | 204 | 3.2 | 3.2 | 0.00 | 0.00 | 0.00 | 84 | 1007.9 |
| 20260505082114 | 8 | 11 | 0.0 | 3.2 | 0.00 | 0.00 | 0.00 | 85 | 1008.1 |
| 20260505081610 | 8 | 5 | 0.0 | 3.2 | 0.00 | 0.00 | 0.00 | 85 | 1007.9 |
| 20260505081108 | 8 | 135 | 0.0 | 6.4 | 0.00 | 0.00 | 0.00 | 84 | 1008.0 |
| 20260505080603 | 8 | 283 | 1.6 | 3.2 | 0.00 | 0.00 | 0.00 | 85 | 1008.1 |
| 20260505080100 | 7 | 43 | 0.0 | 1.6 | 0.00 | 0.00 | 0.00 | 87 | 1008.3 |
| 20260505075556 | 7 | 22 | 0.0 | 3.2 | 0.00 | 0.00 | 0.00 | 87 | 1008.1 |
| 20260505075053 | 7 | 165 | 1.6 | 3.2 | 0.00 | 0.00 | 0.00 | 86 | 1008.2 |
| 20260505074550 | 8 | 162 | 4.8 | 4.8 | 0.00 | 0.00 | 0.00 | 85 | 1007.9 |
| 20260505074047 | 8 | 69 | 0.0 | 4.8 | 0.00 | 0.00 | 0.00 | 85 | 1008.1 |
| 20260505073544 | 8 | 118 | 0.0 | 1.6 | 0.00 | 0.00 | 0.00 | 85 | 1007.9 |
| 20260505073043 | 8 | 194 | 1.6 | 3.2 | 0.00 | 0.00 | 0.00 | 85 | 1008.0 |
| 20260505072538 | 8 | 94 | 0.0 | 4.8 | 0.00 | 0.00 | 0.00 | 85 | 1008.0 |
| 20260505072035 | 8 | 172 | 1.6 | 4.8 | 0.00 | 0.00 | 0.00 | 84 | 1008.1 |
| 20260505071530 | 8 | 136 | 1.6 | 4.8 | 0.00 | 0.00 | 0.00 | 85 | 1008.0 |
| 20260505071029 | 8 | 340 | 0.0 | 4.8 | 0.00 | 0.00 | 0.00 | 86 | 1008.1 |
| 20260505070526 | 7 | 119 | 0.0 | 3.2 | 0.00 | 0.00 | 0.00 | 89 | 1008.0 |
| 20260505070022 | 7 | 330 | 0.0 | 1.6 | 0.00 | 0.00 | 0.00 | 89 | 1007.9 |
| 20260505065518 | 7 | 341 | 0.0 | 1.6 | 0.00 | 0.00 | 0.00 | 91 | 1008.1 |
| 20260505065014 | 7 | 116 | 0.0 | 0.0 | 0.00 | 0.00 | 0.00 | 91 | 1007.9 |
| 20260505064511 | 7 | 235 | 0.0 | 1.6 | 0.00 | 0.00 | 0.00 | 90 | 1008.0 |
| 20260505064010 | 7 | 351 | 0.0 | 3.2 | 0.00 | 0.00 | 0.00 | 91 | 1007.9 |
| 20260505063507 | 7 | 331 | 1.6 | 3.2 | 0.00 | 0.00 | 0.00 | 90 | 1007.9 |
| 20260505063008 | 7 | 235 | 0.0 | 1.6 | 0.00 | 0.00 | 0.00 | 90 | 1007.9 |
| 20260505062505 | 7 | 27 | 1.6 | 1.6 | 0.00 | 0.00 | 0.00 | 89 | 1008.0 |
| 20260505062002 | 7 | 63 | 0.0 | 3.2 | 0.00 | 0.00 | 0.00 | 88 | 1007.9 |
| 20260505061459 | 7 | 190 | 0.0 | 3.2 | 0.00 | 0.00 | 0.00 | 88 | 1008.1 |
| 20260505060957 | 7 | 233 | 0.0 | 4.8 | 0.00 | 0.00 | 0.00 | 87 | 1008.1 |
| 20260505060454 | 7 | 66 | 0.0 | 3.2 | 0.00 | 0.00 | 0.00 | 89 | 1008.0 |
| 20260505055950 | 7 | 221 | 3.2 | 4.8 | 0.00 | 0.00 | 0.00 | 91 | 1007.8 |
| 20260505055446 | 7 | 19 | 0.0 | 0.0 | 0.00 | 0.00 | 0.00 | 91 | 1008.0 |
| 20260505054943 | 7 | 113 | 0.0 | 3.2 | 0.00 | 0.00 | 0.00 | 90 | 1007.9 |
| 20260505054441 | 7 | 246 | 0.0 | 1.6 | 0.00 | 0.00 | 0.00 | 90 | 1007.9 |
| 20260505053938 | 7 | 135 | 0.0 | 3.2 | 0.00 | 0.00 | 0.00 | 89 | 1007.9 |
| 20260505053435 | 7 | 38 | 0.0 | 3.2 | 0.00 | 0.00 | 0.00 | 90 | 1007.9 |
| 20260505052932 | 7 | 103 | 0.0 | 1.6 | 0.00 | 0.00 | 0.00 | 89 | 1007.8 |
| 20260505052429 | 8 | 112 | 0.0 | 3.2 | 0.00 | 0.00 | 0.00 | 88 | 1007.7 |
| 20260505051926 | 8 | 144 | 0.0 | 3.2 | 0.00 | 0.00 | 0.00 | 87 | 1007.7 |
| 20260505051423 | 8 | 160 | 0.0 | 3.2 | 0.00 | 0.00 | 0.00 | 87 | 1008.0 |
| 20260505050921 | 8 | 176 | 0.0 | 4.8 | 0.00 | 0.00 | 0.00 | 87 | 1007.9 |
| 20260505050419 | 8 | 79 | 1.6 | 4.8 | 0.00 | 0.00 | 0.00 | 86 | 1008.2 |
| 20260505041347 | 7 | 177 | 0.0 | 3.2 | 0.00 | 0.00 | 0.00 | 95 | 1007.6 |
| 20260505040844 | 7 | 136 | 3.2 | 3.2 | 0.00 | 0.00 | 0.00 | 95 | 1007.4 |
| 20260505040342 | 7 | 110 | 1.6 | 3.2 | 0.00 | 0.00 | 0.00 | 95 | 1007.6 |
| 20260505035838 | 7 | 84 | 3.2 | 3.2 | 0.00 | 0.10 | 0.10 | 94 | 1007.4 |
| 20260505035334 | 7 | 102 | 3.2 | 3.2 | 0.00 | 0.10 | 0.10 | 95 | 1007.5 |
| 20260505034832 | 7 | 98 | 1.6 | 4.8 | 0.00 | 0.10 | 0.10 | 94 | 1007.4 |
| 20260505034328 | 7 | 93 | 1.6 | 3.2 | 0.00 | 0.10 | 0.10 | 94 | 1007.3 |
| 20260505033825 | 7 | 70 | 3.2 | 3.2 | 0.00 | 0.10 | 0.10 | 93 | 1007.5 |
| 20260505033322 | 7 | 88 | 3.2 | 4.8 | 0.00 | 0.10 | 0.10 | 92 | 1007.3 |
| 20260505032820 | 7 | 120 | 0.0 | 3.2 | 0.00 | 0.10 | 0.10 | 92 | 1007.2 |
| 20260505032316 | 7 | 124 | 0.0 | 1.6 | 0.00 | 0.10 | 0.10 | 93 | 1007.4 |
| 20260505031814 | 7 | 79 | 1.6 | 3.2 | 0.00 | 0.10 | 0.10 | 94 | 1007.2 |
| 20260505031309 | 7 | 67 | 3.2 | 3.2 | 0.00 | 0.10 | 0.10 | 95 | 1007.2 |
| 20260505030807 | 7 | 69 | 3.2 | 3.2 | 0.00 | 0.10 | 0.10 | 95 | 1007.2 |
| 20260505030303 | 8 | 54 | 3.2 | 3.2 | 0.00 | 0.10 | 0.10 | 94 | 1007.4 |
| 20260505025758 | 8 | 150 | 0.0 | 3.2 | 0.00 | 0.10 | 0.10 | 94 | 1007.3 |
| 20260505025256 | 8 | 39 | 1.6 | 3.2 | 0.00 | 0.10 | 0.10 | 93 | 1007.3 |
| 20260505024754 | 8 | 76 | 1.6 | 3.2 | 0.00 | 0.10 | 0.10 | 92 | 1007.5 |
| 20260505024252 | 8 | 82 | 1.6 | 4.8 | 0.00 | 0.10 | 0.10 | 91 | 1007.6 |
| 20260505023749 | 9 | 99 | 3.2 | 3.2 | 0.00 | 0.10 | 0.10 | 89 | 1007.5 |
| 20260505023246 | 8 | 81 | 0.0 | 1.6 | 0.00 | 0.10 | 0.10 | 90 | 1007.4 |
| 20260505022743 | 8 | 63 | 3.2 | 3.2 | 0.00 | 0.10 | 0.10 | 90 | 1007.2 |
| 20260505022240 | 8 | 49 | 0.0 | 1.6 | 0.00 | 0.10 | 0.10 | 90 | 1007.5 |
| 20260505021737 | 9 | 38 | 1.6 | 3.2 | 0.00 | 0.10 | 0.10 | 90 | 1007.4 |
| 20260505021234 | 9 | 43 | 3.2 | 3.2 | 0.00 | 0.10 | 0.10 | 88 | 1007.4 |
| 20260505020729 | 9 | 64 | 0.0 | 3.2 | 0.00 | 0.10 | 0.10 | 87 | 1007.5 |
| 20260505020225 | 10 | 82 | 0.0 | 3.2 | 0.00 | 0.10 | 0.10 | 86 | 1007.6 |
| 20260505015723 | 10 | 107 | 1.6 | 3.2 | 0.00 | 0.10 | 0.10 | 85 | 1007.5 |
| 20260505015219 | 10 | 77 | 3.2 | 3.2 | 0.00 | 0.10 | 0.10 | 85 | 1007.5 |
| 20260505014716 | 10 | 32 | 3.2 | 4.8 | 0.00 | 0.10 | 0.10 | 85 | 1007.5 |
| 20260505014214 | 10 | 57 | 0.0 | 0.0 | 0.00 | 0.10 | 0.10 | 84 | 1007.4 |
| 20260505013710 | 10 | 45 | 3.2 | 3.2 | 0.00 | 0.10 | 0.10 | 85 | 1007.3 |
| 20260505013207 | 10 | 52 | 3.2 | 3.2 | 0.00 | 0.10 | 0.10 | 84 | 1007.4 |
| 20260505012706 | 10 | 18 | 1.6 | 1.6 | 0.00 | 0.10 | 0.10 | 85 | 1007.4 |
| 20260505012203 | 9 | 27 | 1.6 | 1.6 | 0.00 | 0.10 | 0.10 | 87 | 1007.4 |
| 20260505011658 | 10 | 44 | 0.0 | 3.2 | 0.00 | 0.10 | 0.10 | 87 | 1007.3 |
| 20260505011155 | 9 | 49 | 3.2 | 4.8 | 0.00 | 0.10 | 0.10 | 87 | 1007.2 |
| 20260505010650 | 10 | 72 | 3.2 | 3.2 | 0.00 | 0.10 | 0.10 | 86 | 1007.1 |
| 20260505010148 | 10 | 106 | 4.8 | 4.8 | 0.00 | 0.10 | 0.10 | 84 | 1007.2 |
| 20260505005644 | 10 | 33 | 1.6 | 3.2 | 0.00 | 0.10 | 0.10 | 83 | 1007.1 |
| 20260505005141 | 10 | 57 | 0.0 | 3.2 | 0.00 | 0.10 | 0.10 | 83 | 1007.0 |
| 20260505004638 | 10 | 58 | 1.6 | 3.2 | 0.00 | 0.10 | 0.10 | 83 | 1006.8 |
| 20260505004134 | 10 | 4 | 3.2 | 4.8 | 0.00 | 0.10 | 0.10 | 83 | 1006.7 |
| 20260505003632 | 10 | 138 | 0.0 | 3.2 | 0.00 | 0.10 | 0.10 | 82 | 1006.8 |
| 20260505003129 | 10 | 357 | 1.6 | 3.2 | 0.00 | 0.10 | 0.10 | 82 | 1006.7 |
| 20260505002625 | 10 | 124 | 0.0 | 1.6 | 0.00 | 0.10 | 0.10 | 79 | 1006.6 |
| 20260505002124 | 11 | 81 | 0.0 | 3.2 | 0.00 | 0.10 | 0.10 | 79 | 1006.5 |
| 20260505001620 | 11 | 89 | 0.0 | 0.0 | 0.00 | 0.10 | 0.10 | 79 | 1006.3 |
| 20260505001118 | 11 | 66 | 0.0 | 1.6 | 0.00 | 0.10 | 0.10 | 79 | 1006.1 |
| 20260505000615 | 11 | 29 | 0.0 | 0.0 | 0.00 | 0.10 | 0.10 | 79 | 1006.1 |
| 20260505000113 | 11 | 24 | 1.6 | 1.6 | 0.00 | 0.10 | 0.10 | 79 | 1006.1 |
| 20260504235609 | 11 | 44 | 0.0 | 1.6 | 0.00 | 0.10 | 0.10 | 78 | 1006.1 |
| 20260504235106 | 11 | 359 | 0.0 | 1.6 | 0.00 | 0.10 | 0.10 | 78 | 1006.1 |
| 20260504234602 | 12 | 61 | 0.0 | 1.6 | 0.00 | 0.10 | 0.10 | 76 | 1005.9 |
| 20260504234100 | 12 | 39 | 3.2 | 3.2 | 0.00 | 0.10 | 0.10 | 75 | 1005.8 |
| 20260504233555 | 12 | 32 | 0.0 | 0.0 | 0.00 | 0.10 | 0.10 | 73 | 1006.0 |
| 20260504233052 | 13 | 44 | 0.0 | 1.6 | 0.00 | 0.10 | 0.10 | 73 | 1005.7 |
| 20260504232549 | 13 | 333 | 0.0 | 1.6 | 0.00 | 0.10 | 0.10 | 70 | 1005.7 |
| 20260504232047 | 13 | 40 | 0.0 | 3.2 | 0.00 | 0.10 | 0.10 | 69 | 1005.8 |
| 20260504231543 | 15 | 326 | 0.0 | 1.6 | 0.00 | 0.10 | 0.10 | 66 | 1005.6 |
| 20260504231039 | 15 | 1 | 0.0 | 1.6 | 0.00 | 0.10 | 0.10 | 66 | 1005.6 |
| 20260504230535 | 16 | 151 | 0.0 | 1.6 | 0.00 | 0.10 | 0.10 | 60 | 1005.5 |
| 20260504230035 | 17 | 122 | 0.0 | 1.6 | 0.00 | 0.10 | 0.10 | 57 | 1005.5 |
| 20260504225531 | 17 | 6 | 0.0 | 3.2 | 0.00 | 0.10 | 0.10 | 55 | 1005.4 |
| 20260504225028 | 17 | 38 | 1.6 | 3.2 | 0.00 | 0.10 | 0.10 | 51 | 1005.4 |
| 20260504224525 | 17 | 64 | 3.2 | 3.2 | 0.00 | 0.10 | 0.10 | 51 | 1005.4 |
| 20260504224022 | 17 | 50 | 3.2 | 4.8 | 0.00 | 0.10 | 0.10 | 52 | 1005.5 |
| 20260504223519 | 17 | 200 | 3.2 | 6.4 | 0.00 | 0.10 | 0.10 | 51 | 1005.5 |
| 20260504223015 | 18 | 48 | 3.2 | 4.8 | 0.00 | 0.10 | 0.10 | 51 | 1005.4 |
| 20260504222512 | 18 | 1 | 0.0 | 3.2 | 0.00 | 0.10 | 0.10 | 49 | 1005.5 |
| 20260504222009 | 18 | 244 | 1.6 | 6.4 | 0.00 | 0.10 | 0.10 | 52 | 1005.5 |
| 20260504221506 | 17 | 279 | 0.0 | 6.4 | 0.00 | 0.10 | 0.10 | 52 | 1005.6 |
| 20260504221003 | 18 | 231 | 6.4 | 6.4 | 0.00 | 0.10 | 0.10 | 50 | 1005.6 |
| 20260504220459 | 17 | 81 | 1.6 | 8.0 | 0.00 | 0.10 | 0.10 | 53 | 1005.4 |
| 20260504215956 | 17 | 196 | 3.2 | 6.4 | 0.00 | 0.10 | 0.10 | 51 | 1005.5 |
| 20260504215453 | 17 | 238 | 1.6 | 6.4 | 0.00 | 0.10 | 0.10 | 53 | 1005.6 |
| 20260504214950 | 17 | 9 | 3.2 | 9.7 | 0.00 | 0.10 | 0.10 | 52 | 1005.5 |
| 20260504214446 | 17 | 228 | 3.2 | 14.5 | 0.00 | 0.10 | 0.10 | 52 | 1005.3 |
| 20260504213943 | 17 | 114 | 0.0 | 9.7 | 0.00 | 0.10 | 0.10 | 54 | 1005.4 |
| 20260504213439 | 17 | 309 | 4.8 | 8.0 | 0.00 | 0.10 | 0.10 | 53 | 1005.5 |
| 20260504212937 | 17 | 71 | 3.2 | 8.0 | 0.00 | 0.10 | 0.10 | 53 | 1005.4 |
| 20260504212432 | 16 | 340 | 6.4 | 6.4 | 0.00 | 0.10 | 0.10 | 55 | 1005.5 |
| 20260504211930 | 16 | 332 | 3.2 | 8.0 | 0.00 | 0.10 | 0.10 | 56 | 1005.6 |
| 20260504211426 | 16 | 303 | 6.4 | 6.4 | 0.00 | 0.10 | 0.10 | 56 | 1005.6 |
| 20260504210924 | 16 | 356 | 4.8 | 8.0 | 0.00 | 0.10 | 0.10 | 55 | 1005.6 |
| 20260504210420 | 17 | 0 | 3.2 | 11.3 | 0.00 | 0.10 | 0.10 | 54 | 1005.5 |
| 20260504205918 | 17 | 240 | 6.4 | 14.5 | 0.00 | 0.10 | 0.10 | 54 | 1005.4 |
| 20260504205415 | 17 | 201 | 3.2 | 19.3 | 0.00 | 0.10 | 0.10 | 54 | 1005.4 |
| 20260504204913 | 17 | 286 | 8.0 | 17.7 | 0.00 | 0.10 | 0.10 | 53 | 1005.4 |
| 20260504204411 | 17 | 299 | 8.0 | 11.3 | 0.00 | 0.10 | 0.10 | 55 | 1005.3 |
| 20260504203911 | 17 | 265 | 11.3 | 14.5 | 0.00 | 0.10 | 0.10 | 54 | 1005.4 |
| 20260504203407 | 17 | 178 | 6.4 | 12.9 | 0.00 | 0.10 | 0.10 | 55 | 1005.5 |
| 20260504202903 | 16 | 335 | 12.9 | 22.5 | 0.00 | 0.10 | 0.10 | 55 | 1005.4 |
| 20260504202400 | 16 | 233 | 8.0 | 8.0 | 0.00 | 0.10 | 0.10 | 57 | 1005.5 |
| 20260504201856 | 16 | 125 | 6.4 | 9.7 | 0.00 | 0.10 | 0.10 | 58 | 1005.5 |
| 20260504201354 | 16 | 253 | 9.7 | 14.5 | 0.00 | 0.10 | 0.10 | 57 | 1005.4 |
| 20260504200851 | 16 | 93 | 6.4 | 14.5 | 0.00 | 0.10 | 0.10 | 58 | 1005.2 |
| 20260504200348 | 16 | 353 | 8.0 | 29.0 | 0.00 | 0.10 | 0.10 | 59 | 1005.5 |